(187) Lamberta(187) Lamberta Epoch 2008 Nov. 30.0 TT = JDT 2454800.5 Goffin M 327.87779 (2000.0) P Q n 0.21826501 Peri. 195.23093 -0.79912562 +0.59724557 a 2.7319954 Node 21.88120 -0.53055878 -0.64707306 e 0.2362766 Incl. 10.59555 -0.28267583 -0.47391369 P 4.52 H 8.16 G 0.15 U 0 From 1052 observations at 56 oppositions, 1878-2008, mean residual 0".73.An explanation of the orbital elements is available.
These orbital elements are also available in forms suitable for loading into a number of popular planetarium-type software programs.
Personalized ephemerides for this object (and others) can be generated using the MPES.
Date TT R. A. (2000) Decl. Delta r Elong. Phase V 2009 02 20 14 30.91 -12 40.6 1.543 2.120 111.9 25.6 11.9 2009 02 25 14 34.22 -13 20.8 1.486 2.115 116.0 24.9 11.8 2009 03 02 14 36.83 -13 59.6 1.431 2.111 120.2 24.0 11.7 2009 03 07 14 38.71 -14 37.0 1.379 2.106 124.6 22.8 11.6 2009 03 12 14 39.80 -15 13.1 1.329 2.103 129.1 21.5 11.4 2009 03 17 14 40.07 -15 47.6 1.283 2.099 133.9 20.0 11.3 2009 03 22 14 39.47 -16 20.4 1.241 2.096 138.8 18.2 11.2 2009 03 27 14 38.00 -16 51.4 1.203 2.094 143.9 16.3 11.0 2009 04 01 14 35.67 -17 20.3 1.170 2.092 149.2 14.2 10.9 2009 04 06 14 32.54 -17 46.9 1.141 2.090 154.6 11.8 10.8 2009 04 11 14 28.71 -18 11.1 1.118 2.088 160.2 9.4 10.6 2009 04 16 14 24.28 -18 32.6 1.100 2.087 165.6 6.8 10.5 2009 04 21 14 19.41 -18 51.3 1.088 2.087 170.8 4.4 10.3 2009 04 26 14 14.29 -19 07.3 1.083 2.086 174.3 2.7 10.2 2009 05 01 14 09.13 -19 20.8 1.083 2.087 172.9 3.4 10.3 2009 05 06 14 04.14 -19 32.2 1.090 2.087 168.2 5.7 10.4 2009 05 11 13 59.51 -19 42.1 1.102 2.088 162.9 8.2 10.5 2009 05 16 13 55.41 -19 50.9 1.120 2.090 157.4 10.7 10.7 2009 05 21 13 51.96 -19 59.3 1.143 2.091 152.1 13.1 10.8 2009 05 26 13 49.28 -20 08.0 1.171 2.094 146.8 15.3 11.0 2009 05 31 13 47.43 -20 17.6 1.203 2.096 141.8 17.4 11.1 2009 06 05 13 46.46 -20 28.5 1.240 2.099 136.9 19.3 11.2 2009 06 10 13 46.36 -20 41.1 1.281 2.102 132.3 20.9 11.3 2009 06 15 13 47.10 -20 55.5 1.324 2.106 127.9 22.4 11.5 2009 06 20 13 48.68 -21 12.0 1.371 2.110 123.6 23.6 11.6 2009 06 25 13 51.04 -21 30.5 1.420 2.115 119.5 24.7 11.7 2009 06 30 13 54.15 -21 51.1 1.471 2.120 115.6 25.6 11.8